When you browse on this site, cookies collect data to enhance your experience and personalize the content and advertising you see.
Visit our Privacy Policy to learn more. By continuing to use the site, you agree to this use of cookies and data.
  • In United Kingdom
  • List of Countries
  • For 7 days
  • Water Temperature
  • Satellite Maps
  • Weather Map
  • Weather Widgets
  • user-avatar
    Login

    Hourly Weather Canberra

    Today, 23 July, Tuesday

    Time Temperature Precipitation Wind Pressure Humidity
    00:00 +7°C° 0 mm 1 mps 708 mmHg 95%
    01:00 +6°C° 0 mm 2 mps 708 mmHg 95%
    02:00 +5°C° 0 mm 2 mps 707 mmHg 96%
    03:00 +5°C° 0 mm 2 mps 707 mmHg 96%
    04:00 +4°C° 0 mm 2 mps 707 mmHg 97%
    05:00 +3°C° 0 mm 3 mps 707 mmHg 93%
    06:00 +3°C° 0 mm 4 mps 707 mmHg 90%
    07:00 +3°C° 0 mm 4 mps 707 mmHg 87%
    08:00 +4°C° 0 mm 6 mps 707 mmHg 76%
    09:00 +6°C° 0 mm 7 mps 707 mmHg 65%
    10:00 +9°C° 0 mm 8 mps 708 mmHg 55%
    11:00 +10°C° 0 mm 8 mps 707 mmHg 53%
    12:00 +11°C° 0 mm 9 mps 707 mmHg 52%
    13:00 +12°C° 0 mm 9 mps 707 mmHg 50%
    14:00 +11°C° 0 mm 8 mps 707 mmHg 56%
    15:00 +10°C° 0 mm 8 mps 707 mmHg 62%
    16:00 +9°C° 0 mm 7 mps 707 mmHg 68%
    17:00 +8°C° 0 mm 6 mps 707 mmHg 73%
    18:00 +7°C° 0 mm 6 mps 707 mmHg 78%
    19:00 +6°C° 0 mm 5 mps 707 mmHg 84%
    20:00 +6°C° 0 mm 5 mps 707 mmHg 83%
    21:00 +5°C° 0 mm 6 mps 707 mmHg 83%
    22:00 +7°C° 0 mm 6 mps 708 mmHg 82%
    23:00 +6°C° 0 mm 7 mps 707 mmHg 81%

    Tomorrow, 24 July, Wednesday

    Time Temperature Precipitation Wind Pressure Humidity
    00:00 +6°C° 0 mm 7 mps 707 mmHg 80%
    01:00 +6°C° 0 mm 8 mps 707 mmHg 79%
    02:00 +5°C° 0.1 mm 7 mps 707 mmHg 80%
    03:00 +5°C° 0.1 mm 6 mps 707 mmHg 81%
    04:00 +6°C° 0.1 mm 5 mps 707 mmHg 83%
    05:00 +5°C° 0 mm 5 mps 708 mmHg 84%
    06:00 +3°C° 0 mm 5 mps 708 mmHg 85%
    07:00 +3°C° 0 mm 4 mps 709 mmHg 87%
    08:00 +5°C° 0 mm 4 mps 710 mmHg 79%
    09:00 +7°C° 0 mm 3 mps 710 mmHg 70%
    10:00 +8°C° 0 mm 3 mps 711 mmHg 62%
    11:00 +9°C° 0 mm 3 mps 711 mmHg 55%
    12:00 +10°C° 0 mm 3 mps 711 mmHg 48%
    13:00 +11°C° 0 mm 3 mps 711 mmHg 41%
    14:00 +11°C° 0 mm 3 mps 711 mmHg 45%
    15:00 +10°C° 0 mm 3 mps 711 mmHg 49%
    16:00 +10°C° 0 mm 3 mps 711 mmHg 52%
    17:00 +8°C° 0 mm 3 mps 712 mmHg 63%
    18:00 +6°C° 0 mm 2 mps 713 mmHg 74%
    19:00 +4°C° 0 mm 1 mps 713 mmHg 85%
    20:00 +4°C° 0 mm 1 mps 714 mmHg 86%
    21:00 +3°C° 0 mm 1 mps 714 mmHg 87%
    22:00 +2°C° 0 mm 0 mps 714 mmHg 88%
    23:00 +1°C° 0 mm 0 mps 714 mmHg 87%

    Day after tomorrow, 25 July, Thursday

    Time Temperature Precipitation Wind Pressure Humidity
    00:00 +1°C° 0 mm 0 mps 714 mmHg 87%
    01:00 +1°C° 0 mm 0 mps 714 mmHg 87%
    02:00 +1°C° 0 mm 0 mps 714 mmHg 86%
    03:00 0°C° 0 mm 0 mps 714 mmHg 86%
    04:00 0°C° 0 mm 0 mps 714 mmHg 85%
    05:00 0°C° 0 mm 0 mps 714 mmHg 86%
    06:00 0°C° 0 mm 0 mps 714 mmHg 86%
    07:00 0°C° 0 mm 0 mps 714 mmHg 87%
    08:00 +3°C° 0 mm 0 mps 715 mmHg 76%
    09:00 +6°C° 0 mm 0 mps 715 mmHg 65%
    10:00 +9°C° 0 mm 0 mps 715 mmHg 54%
    11:00 +11°C° 0 mm 1 mps 715 mmHg 50%
    12:00 +13°C° 0 mm 1 mps 714 mmHg 46%
    13:00 +14°C° 0 mm 1 mps 714 mmHg 43%
    14:00 +14°C° 0 mm 1 mps 713 mmHg 46%
    15:00 +13°C° 0 mm 1 mps 713 mmHg 50%
    16:00 +13°C° 0 mm 1 mps 713 mmHg 54%
    17:00 +10°C° 0 mm 1 mps 713 mmHg 64%
    18:00 +8°C° 0 mm 1 mps 713 mmHg 73%
    19:00 +4°C° 0 mm 0 mps 713 mmHg 83%
    20:00 +4°C° 0 mm 0 mps 713 mmHg 84%
    21:00 +3°C° 0 mm 0 mps 713 mmHg 84%
    22:00 +3°C° 0 mm 0 mps 713 mmHg 85%
    23:00 +3°C° 0 mm 0 mps 713 mmHg 86%

    26 July, Friday

    Time Temperature Precipitation Wind Pressure Humidity
    00:00 +3°C° 0 mm 0 mps 712 mmHg 86%
    01:00 +3°C° 0 mm 0 mps 712 mmHg 87%
    02:00 +3°C° 0 mm 0 mps 712 mmHg 88%
    03:00 +4°C° 0 mm 1 mps 711 mmHg 88%
    04:00 +4°C° 0 mm 1 mps 711 mmHg 89%
    05:00 +3°C° 0 mm 1 mps 711 mmHg 90%
    06:00 +3°C° 0 mm 1 mps 711 mmHg 91%
    07:00 +3°C° 0 mm 1 mps 711 mmHg 92%
    08:00 +5°C° 0 mm 1 mps 711 mmHg 85%
    09:00 +5°C° 0 mm 2 mps 711 mmHg 79%
    10:00 +7°C° 0 mm 2 mps 711 mmHg 72%
    11:00 +8°C° 0 mm 3 mps 711 mmHg 68%
    12:00 +9°C° 0 mm 3 mps 710 mmHg 64%
    13:00 +10°C° 0 mm 3 mps 710 mmHg 59%
    14:00 +10°C° 0 mm 3 mps 710 mmHg 63%
    15:00 +10°C° 0 mm 3 mps 710 mmHg 66%
    16:00 +10°C° 0 mm 3 mps 710 mmHg 69%
    17:00 +9°C° 0 mm 3 mps 710 mmHg 75%
    18:00 +7°C° 0 mm 3 mps 710 mmHg 81%
    19:00 +6°C° 0 mm 2 mps 711 mmHg 87%
    20:00 +6°C° 0 mm 2 mps 711 mmHg 88%
    21:00 +7°C° 0 mm 1 mps 711 mmHg 89%
    22:00 +7°C° 0 mm 1 mps 711 mmHg 90%
    23:00 +6°C° 0 mm 1 mps 711 mmHg 91%

    27 July, Saturday

    Time Temperature Precipitation Wind Pressure Humidity
    00:00 +6°C° 0 mm 1 mps 711 mmHg 92%
    01:00 +5°C° 0 mm 0 mps 711 mmHg 93%
    02:00 +4°C° 0 mm 0 mps 711 mmHg 93%
    03:00 +4°C° 0 mm 0 mps 711 mmHg 93%
    04:00 +4°C° 0 mm 0 mps 711 mmHg 94%
    05:00 +4°C° 0 mm 0 mps 711 mmHg 93%
    06:00 +4°C° 0 mm 0 mps 711 mmHg 93%
    07:00 +4°C° 0 mm 0 mps 712 mmHg 92%
    08:00 +6°C° 0 mm 0 mps 712 mmHg 88%
    09:00 +8°C° 0 mm 1 mps 712 mmHg 83%
    10:00 +10°C° 0 mm 1 mps 713 mmHg 78%
    11:00 +10°C° 0 mm 1 mps 712 mmHg 77%
    12:00 +10°C° 0 mm 2 mps 712 mmHg 77%
    13:00 +10°C° 0 mm 3 mps 712 mmHg 76%
    14:00 +10°C° 0 mm 3 mps 712 mmHg 75%
    15:00 +10°C° 0 mm 3 mps 711 mmHg 74%
    16:00 +10°C° 0 mm 3 mps 711 mmHg 73%
    17:00 +8°C° 0 mm 2 mps 711 mmHg 81%
    18:00 +7°C° 0 mm 2 mps 712 mmHg 88%
    19:00 +7°C° 0 mm 1 mps 712 mmHg 95%
    20:00 +6°C° 0 mm 1 mps 712 mmHg 95%
    21:00 +6°C° 0 mm 1 mps 712 mmHg 95%
    22:00 +5°C° 0 mm 1 mps 713 mmHg 95%
    23:00 +5°C° 0 mm 1 mps 712 mmHg 95%

    28 July, Sunday

    Time Temperature Precipitation Wind Pressure Humidity
    00:00 +4°C° 0 mm 1 mps 712 mmHg 95%
    01:00 +3°C° 0 mm 0 mps 712 mmHg 96%
    02:00 +2°C° 0 mm 0 mps 712 mmHg 96%
    03:00 +2°C° 0 mm 0 mps 712 mmHg 96%
    04:00 +2°C° 0 mm 0 mps 712 mmHg 96%
    05:00 +2°C° 0 mm 0 mps 712 mmHg 96%
    06:00 +1°C° 0 mm 0 mps 712 mmHg 96%
    07:00 +1°C° 0 mm 0 mps 713 mmHg 96%
    08:00 +3°C° 0 mm 0 mps 713 mmHg 89%
    09:00 +6°C° 0 mm 0 mps 713 mmHg 81%
    10:00 +9°C° 0 mm 1 mps 714 mmHg 74%
    11:00 +10°C° 0 mm 1 mps 713 mmHg 68%
    12:00 +11°C° 0 mm 1 mps 713 mmHg 62%
    13:00 +12°C° 0 mm 2 mps 712 mmHg 56%
    14:00 +12°C° 0 mm 2 mps 712 mmHg 59%
    15:00 +10°C° 0 mm 2 mps 712 mmHg 61%
    16:00 +10°C° 0 mm 3 mps 712 mmHg 64%
    17:00 +8°C° 0 mm 2 mps 712 mmHg 73%
    18:00 +7°C° 0 mm 1 mps 712 mmHg 83%
    19:00 +5°C° 0 mm 1 mps 713 mmHg 92%
    20:00 +5°C° 0 mm 1 mps 713 mmHg 93%
    21:00 +4°C° 0 mm 1 mps 713 mmHg 93%
    22:00 +3°C° 0 mm 0 mps 713 mmHg 94%
    23:00 +2°C° 0 mm 0 mps 712 mmHg 94%
    Show more